Freedom — WDD5825 — position and weather

sailwx.info

Track history (hours):
 
Tides and Currents Weather Stations Pressure Air Temp Water Temp Dewpoint Dewpoint Depression Visibility Wind Speed Wind Dir Waves Ship Positions

Freedom

Owner: REINAUER TRANSPORTATION CO.,LLC., STATEN ISLAND, NY. More information available from US FCC via Universal Licensing System and Coast Guard Vessel Documentation Center.

Last reported at 2018-Jan-18 13:30 UTC. Time now 2018-Jan-18 13:55 UTC.
Position N 42°23' W 071°03'.

Length 28 m; draft 4.3 m.

Type: Tug. MMSI: 367164250.

Date/timePositionNaut miles runAvg speedWind from/ knotsBaromVisibWave heightAir tempDewpointWater temp
2018-Jan-18 13:30N 42°23' W 071°03'1 2.0
2018-Jan-18 12:59N 42°22' W 071°03'1 0.1
2018-Jan-18 06:48N 42°23' W 071°03'0 0.0
2018-Jan-18 06:30N 42°23' W 071°03'0 0.0
2018-Jan-18 06:00N 42°23' W 071°03'0 0.0
2018-Jan-18 05:30N 42°23' W 071°03'0 0.0
2018-Jan-18 05:00N 42°23' W 071°03'0 0.0
2018-Jan-18 04:18N 42°23' W 071°03'0 0.0
2018-Jan-18 03:51N 42°23' W 071°03'  
2018-Jan-12 14:52N 42°23' W 071°03'0 0.0
2018-Jan-12 14:13N 42°23' W 071°03'0 1.3
2018-Jan-12 13:58N 42°23' W 071°02'1 1.0
2018-Jan-12 12:42N 42°24' W 071°01'1 3.4
2018-Jan-12 12:20N 42°23' W 071°02'0 0.9
2018-Jan-12 12:00N 42°23' W 071°03'1 1.3
2018-Jan-12 11:30N 42°22' W 071°03'2 2.2
2018-Jan-12 10:49N 42°23' W 071°01'0 1.1
2018-Jan-12 10:29N 42°24' W 071°01'1 2.3
2018-Jan-12 10:00N 42°23' W 071°02'1 2.1
2018-Jan-12 09:25N 42°24' W 071°01'0 0.6
2018-Jan-12 08:59N 42°24' W 071°01'2 3.7
2018-Jan-12 08:31N 42°23' W 071°03'0 0.0
2018-Jan-12 07:59N 42°23' W 071°03'0 0.0
2018-Jan-12 07:28N 42°23' W 071°03'0 0.0
2018-Jan-12 07:00N 42°23' W 071°03'1 0.8
2018-Jan-12 05:57N 42°23' W 071°02'1 0.2
2018-Jan-12 01:29N 42°23' W 071°03'2 2.7
2018-Jan-12 00:51N 42°24' W 071°01'1 1.6
2018-Jan-12 00:30N 42°23' W 071°01'1 2.7
2018-Jan-11 23:57N 42°23' W 071°03'1 2.8
2018-Jan-11 23:30N 42°23' W 071°01'1 1.2
2018-Jan-11 23:00N 42°24' W 071°01'1 2.3
2018-Jan-11 22:28N 42°23' W 071°02'1 1.4
2018-Jan-11 22:00N 42°23' W 071°02'0 0.2
2018-Jan-11 21:28N 42°23' W 071°01'1 1.5
2018-Jan-11 20:59N 42°24' W 071°01'0 0.4
2018-Jan-11 20:25N 42°24' W 071°01'1 3.1
2018-Jan-11 20:00N 42°23' W 071°03'1 0.7
2018-Jan-11 18:47N 42°23' W 071°01'1 0.6
2018-Jan-11 17:27N 42°23' W 071°03'1 2.4
2018-Jan-11 17:00N 42°23' W 071°04'0 0.2
2018-Jan-11 16:30N 42°23' W 071°04'2 3.1
2018-Jan-11 15:48N 42°21' W 071°02'2 5.1
2018-Jan-11 15:30N 42°23' W 071°03'4 5.3
2018-Jan-11 14:49N 42°20' W 070°59'0 0.6
2018-Jan-11 14:30N 42°20' W 070°60'3 6.8
2018-Jan-11 14:00N 42°23' W 071°03'1 2.0
2018-Jan-11 13:30N 42°23' W 071°04'0 0.6
2018-Jan-11 13:00N 42°23' W 071°03'1 2.0
2018-Jan-11 12:29N 42°22' W 071°03'1 1.7
2018-Jan-11 11:44N 42°23' W 071°02'1 3.1
2018-Jan-11 11:29N 42°24' W 071°01'0 0.3
2018-Jan-11 11:00N 42°23' W 071°01'2 3.0
2018-Jan-11 10:28N 42°22' W 071°03'0 0.2
2018-Jan-11 08:57N 42°23' W 071°03'0 0.0
2018-Jan-11 08:30N 42°23' W 071°03'2 4.5
2018-Jan-11 07:59N 42°21' W 071°01'0 0.6
2018-Jan-11 07:30N 42°21' W 071°01'3 5.1
2018-Jan-11 07:00N 42°23' W 071°03'0 0.5
2018-Jan-11 06:30N 42°23' W 071°03'1 2.0
2018-Jan-11 06:00N 42°23' W 071°04'1 2.5
2018-Jan-11 05:30N 42°23' W 071°03'0 0.0
2018-Jan-11 05:00N 42°23' W 071°03'1 1.4
2018-Jan-11 04:24N 42°23' W 071°01'0 0.0
2018-Jan-11 03:57N 42°23' W 071°01'1 2.0
2018-Jan-11 03:30N 42°23' W 071°03'0 0.5
2018-Jan-11 02:59N 42°23' W 071°03'1 2.8
2018-Jan-11 02:30N 42°21' W 071°02'3 5.6
2018-Jan-11 01:55N 42°20' W 070°58'0 0.0
2018-Jan-11 01:30N 42°20' W 070°58'0 0.0
2018-Jan-11 01:00N 42°20' W 070°58'0 0.0
2018-Jan-11 00:30N 42°20' W 070°58'0 0.0
2018-Jan-11 00:00N 42°20' W 070°58'0 0.0
2018-Jan-10 23:30N 42°20' W 070°58'0 0.1
2018-Jan-10 22:59N 42°20' W 070°58'1 1.8
2018-Jan-10 22:27N 42°20' W 070°59'3 7.1
2018-Jan-10 21:57N 42°22' W 071°03'1 0.9
2018-Jan-10 20:50N 42°23' W 071°02'0 1.3
2018-Jan-10 20:30N 42°23' W 071°03'0 0.0
2018-Jan-10 19:59N 42°23' W 071°03'0 0.0
2018-Jan-10 19:30N 42°23' W 071°03'0 0.0
2018-Jan-10 18:38N 42°23' W 071°03'0 0.0
2018-Jan-10 18:30N 42°23' W 071°03'0 0.0
2018-Jan-10 17:57N 42°23' W 071°03'0 0.0
2018-Jan-10 17:30N 42°23' W 071°03'0 0.0
2018-Jan-10 17:00N 42°23' W 071°03'0 0.0
2018-Jan-10 16:30N 42°23' W 071°03'0 0.0
2018-Jan-10 16:00N 42°23' W 071°03'0 0.2
2018-Jan-10 15:30N 42°23' W 071°03'0 0.3
2018-Jan-10 14:46N 42°23' W 071°03'0 0.4
2018-Jan-10 14:30N 42°23' W 071°03'1 2.4
2018-Jan-10 14:00N 42°23' W 071°01'0 0.7
2018-Jan-10 13:24N 42°24' W 071°01'1 3.5
2018-Jan-10 13:00N 42°23' W 071°03'0 0.5
2018-Jan-10 12:30N 42°23' W 071°03'1 1.5
2018-Jan-10 12:00N 42°23' W 071°04'0 0.0
2018-Jan-10 11:29N 42°23' W 071°04'0 0.2
2018-Jan-10 11:00N 42°23' W 071°04'1 1.4
2018-Jan-10 10:29N 42°23' W 071°03'2 3.8
2018-Jan-10 10:00N 42°21' W 071°02'3 6.1
2018-Jan-10 09:30N 42°20' W 070°58'1 0.3
2018-Jan-10 07:21N 42°21' W 070°58'3 9.1
2018-Jan-10 07:00N 42°23' W 070°54'4 8.1
2018-Jan-10 06:30N 42°24' W 070°49'510.2
2018-Jan-10 06:00N 42°22' W 070°55'5 9.0
2018-Jan-10 05:28N 42°21' W 071°02'2 4.5
2018-Jan-10 05:00N 42°23' W 071°03'0 0.0
2018-Jan-10 04:30N 42°23' W 071°03'0 0.0
2018-Jan-10 04:00N 42°23' W 071°03'0 0.7
2018-Jan-10 03:30N 42°23' W 071°03'0 0.1
2018-Jan-10 03:00N 42°23' W 071°03'0 0.0
2018-Jan-10 02:30N 42°23' W 071°03'0 0.0
2018-Jan-10 02:00N 42°23' W 071°03'0 0.0
2018-Jan-10 01:27N 42°23' W 071°03'0 0.0
2018-Jan-10 00:53N 42°23' W 071°03'0 0.7
2018-Jan-10 00:30N 42°23' W 071°03'1 1.2
2018-Jan-10 00:00N 42°23' W 071°03'1 0.8
2018-Jan-09 22:51N 42°23' W 071°02'0 0.1
2018-Jan-09 22:27N 42°23' W 071°02'1 1.9
2018-Jan-09 22:00N 42°22' W 071°03'2 3.9
2018-Jan-09 21:28N 42°21' W 071°01'0 0.4
2018-Jan-09 20:56N 42°21' W 071°01'2 4.4
2018-Jan-09 20:30N 42°20' W 070°59'2 3.4
2018-Jan-09 19:56N 42°21' W 071°01'2 3.7
2018-Jan-09 19:30N 42°22' W 071°03'2 3.0
2018-Jan-09 18:41N 42°24' W 071°01'0 0.1
2018-Jan-09 18:17N 42°24' W 071°01'0 0.0
2018-Jan-09 18:00N 42°24' W 071°01'2 3.1
2018-Jan-09 17:28N 42°23' W 071°03'0 0.0
2018-Jan-09 16:59N 42°23' W 071°03'0 0.0
2018-Jan-09 16:22N 42°23' W 071°03'0 0.1
2018-Jan-09 15:54N 42°23' W 071°03'1 2.6
2018-Jan-09 15:31N 42°23' W 071°04'1 2.5
2018-Jan-09 14:59N 42°22' W 071°03'1 1.1
2018-Jan-09 14:30N 42°23' W 071°03'0 0.3
2018-Jan-09 14:00N 42°23' W 071°03'0 0.0
2018-Jan-09 13:30N 42°23' W 071°03'0 0.0
2018-Jan-09 13:00N 42°23' W 071°03'0 0.0
2018-Jan-09 12:29N 42°23' W 071°03'0 0.4
2018-Jan-09 12:00N 42°23' W 071°03'1 2.9
2018-Jan-09 11:30N 42°24' W 071°01'0 0.1
2018-Jan-09 11:00N 42°24' W 071°01'2 1.7
2018-Jan-09 10:04N 42°23' W 071°03'0 0.6
2018-Jan-09 10:00N 42°23' W 071°03'3 5.1
2018-Jan-09 09:30N 42°21' W 071°01'0 0.6
2018-Jan-09 08:55N 42°21' W 071°01'2 5.4
2018-Jan-09 08:30N 42°23' W 071°03'1 1.1
2018-Jan-09 08:00N 42°23' W 071°03'0 0.1
2018-Jan-09 07:30N 42°23' W 071°03'1 2.5
2018-Jan-09 07:00N 42°22' W 071°03'1 1.8
2018-Jan-09 06:28N 42°23' W 071°03'0 0.0
2018-Jan-09 05:43N 42°23' W 071°03'0 0.0
2018-Jan-09 05:10N 42°23' W 071°03'0 0.0
2018-Jan-09 04:46N 42°23' W 071°03'0 0.0
2018-Jan-09 04:29N 42°23' W 071°03'0 0.0
2018-Jan-09 04:00N 42°23' W 071°03'0 0.0
2018-Jan-09 03:30N 42°23' W 071°03'0 0.0
2018-Jan-09 02:58N 42°23' W 071°03'0 0.0
2018-Jan-09 02:26N 42°23' W 071°03'0 0.2
2018-Jan-09 01:58N 42°23' W 071°03'0 0.1
2018-Jan-09 01:30N 42°23' W 071°03'0 0.2
2018-Jan-09 01:00N 42°23' W 071°03'0 0.1
2018-Jan-09 00:30N 42°23' W 071°03'0 0.0
2018-Jan-08 23:57N 42°23' W 071°03'0 0.0
2018-Jan-08 21:49N 42°23' W 071°03'1 2.6
2018-Jan-08 21:29N 42°23' W 071°01'1 0.5
2018-Jan-08 20:10N 42°23' W 071°02'0 2.8
2018-Jan-08 20:00N 42°23' W 071°03'1 1.4
2018-Jan-08 19:30N 42°23' W 071°04'0 0.7
2018-Jan-08 19:00N 42°23' W 071°03'1 0.7
2018-Jan-08 18:14N 42°23' W 071°03'0 0.9
2018-Jan-08 18:00N 42°23' W 071°03'0 0.5
2018-Jan-08 17:25N 42°23' W 071°02'0 0.8
2018-Jan-08 16:54N 42°23' W 071°03'0 0.0
2018-Jan-08 16:29N 42°23' W 071°03'0 0.0
2018-Jan-08 15:50N 42°23' W 071°03'1 2.2
2018-Jan-08 15:24N 42°23' W 071°01'1 2.0
2018-Jan-08 15:00N 42°24' W 071°01'0 0.1
2018-Jan-08 14:31N 42°24' W 071°01'0 0.5
2018-Jan-08 13:52N 42°24' W 071°01'1 3.7
2018-Jan-08 13:30N 42°23' W 071°03'  
Track history (hours):
 
Tides and Currents Weather Stations Pressure Air Temp Water Temp Dewpoint Dewpoint Depression Visibility Wind Speed Wind Dir Waves Ship Positions

Freedom

Owner: REINAUER TRANSPORTATION CO.,LLC., STATEN ISLAND, NY. More information available from US FCC via Universal Licensing System and Coast Guard Vessel Documentation Center.

Last reported at 2018-Jan-18 13:30 UTC. Time now 2018-Jan-18 13:55 UTC.
Position N 42°23' W 071°03'.

Length 28 m; draft 4.3 m.

Type: Tug. MMSI: 367164250.

Date/timePositionNaut miles runAvg speedWind from/ knotsBaromVisibWave heightAir tempDewpointWater temp
2018-Jan-18 13:30N 42°23' W 071°03'1 2.0
2018-Jan-18 12:59N 42°22' W 071°03'1 0.1
2018-Jan-18 06:48N 42°23' W 071°03'0 0.0
2018-Jan-18 06:30N 42°23' W 071°03'0 0.0
2018-Jan-18 06:00N 42°23' W 071°03'0 0.0
2018-Jan-18 05:30N 42°23' W 071°03'0 0.0
2018-Jan-18 05:00N 42°23' W 071°03'0 0.0
2018-Jan-18 04:18N 42°23' W 071°03'0 0.0
2018-Jan-18 03:51N 42°23' W 071°03'  
2018-Jan-12 14:52N 42°23' W 071°03'0 0.0
2018-Jan-12 14:13N 42°23' W 071°03'0 1.3
2018-Jan-12 13:58N 42°23' W 071°02'1 1.0
2018-Jan-12 12:42N 42°24' W 071°01'1 3.4
2018-Jan-12 12:20N 42°23' W 071°02'0 0.9
2018-Jan-12 12:00N 42°23' W 071°03'1 1.3
2018-Jan-12 11:30N 42°22' W 071°03'2 2.2
2018-Jan-12 10:49N 42°23' W 071°01'0 1.1
2018-Jan-12 10:29N 42°24' W 071°01'1 2.3
2018-Jan-12 10:00N 42°23' W 071°02'1 2.1
2018-Jan-12 09:25N 42°24' W 071°01'0 0.6
2018-Jan-12 08:59N 42°24' W 071°01'2 3.7
2018-Jan-12 08:31N 42°23' W 071°03'0 0.0
2018-Jan-12 07:59N 42°23' W 071°03'0 0.0
2018-Jan-12 07:28N 42°23' W 071°03'0 0.0
2018-Jan-12 07:00N 42°23' W 071°03'1 0.8
2018-Jan-12 05:57N 42°23' W 071°02'1 0.2
2018-Jan-12 01:29N 42°23' W 071°03'2 2.7
2018-Jan-12 00:51N 42°24' W 071°01'1 1.6
2018-Jan-12 00:30N 42°23' W 071°01'1 2.7
2018-Jan-11 23:57N 42°23' W 071°03'1 2.8
2018-Jan-11 23:30N 42°23' W 071°01'1 1.2
2018-Jan-11 23:00N 42°24' W 071°01'1 2.3
2018-Jan-11 22:28N 42°23' W 071°02'1 1.4
2018-Jan-11 22:00N 42°23' W 071°02'0 0.2
2018-Jan-11 21:28N 42°23' W 071°01'1 1.5
2018-Jan-11 20:59N 42°24' W 071°01'0 0.4
2018-Jan-11 20:25N 42°24' W 071°01'1 3.1
2018-Jan-11 20:00N 42°23' W 071°03'1 0.7
2018-Jan-11 18:47N 42°23' W 071°01'1 0.6
2018-Jan-11 17:27N 42°23' W 071°03'1 2.4
2018-Jan-11 17:00N 42°23' W 071°04'0 0.2
2018-Jan-11 16:30N 42°23' W 071°04'2 3.1
2018-Jan-11 15:48N 42°21' W 071°02'2 5.1
2018-Jan-11 15:30N 42°23' W 071°03'4 5.3
2018-Jan-11 14:49N 42°20' W 070°59'0 0.6
2018-Jan-11 14:30N 42°20' W 070°60'3 6.8
2018-Jan-11 14:00N 42°23' W 071°03'1 2.0
2018-Jan-11 13:30N 42°23' W 071°04'0 0.6
2018-Jan-11 13:00N 42°23' W 071°03'1 2.0
2018-Jan-11 12:29N 42°22' W 071°03'1 1.7
2018-Jan-11 11:44N 42°23' W 071°02'1 3.1
2018-Jan-11 11:29N 42°24' W 071°01'0 0.3
2018-Jan-11 11:00N 42°23' W 071°01'2 3.0
2018-Jan-11 10:28N 42°22' W 071°03'0 0.2
2018-Jan-11 08:57N 42°23' W 071°03'0 0.0
2018-Jan-11 08:30N 42°23' W 071°03'2 4.5
2018-Jan-11 07:59N 42°21' W 071°01'0 0.6
2018-Jan-11 07:30N 42°21' W 071°01'3 5.1
2018-Jan-11 07:00N 42°23' W 071°03'0 0.5
2018-Jan-11 06:30N 42°23' W 071°03'1 2.0
2018-Jan-11 06:00N 42°23' W 071°04'1 2.5
2018-Jan-11 05:30N 42°23' W 071°03'0 0.0
2018-Jan-11 05:00N 42°23' W 071°03'1 1.4
2018-Jan-11 04:24N 42°23' W 071°01'0 0.0
2018-Jan-11 03:57N 42°23' W 071°01'1 2.0
2018-Jan-11 03:30N 42°23' W 071°03'0 0.5
2018-Jan-11 02:59N 42°23' W 071°03'1 2.8
2018-Jan-11 02:30N 42°21' W 071°02'3 5.6
2018-Jan-11 01:55N 42°20' W 070°58'0 0.0
2018-Jan-11 01:30N 42°20' W 070°58'0 0.0
2018-Jan-11 01:00N 42°20' W 070°58'0 0.0
2018-Jan-11 00:30N 42°20' W 070°58'0 0.0
2018-Jan-11 00:00N 42°20' W 070°58'0 0.0
2018-Jan-10 23:30N 42°20' W 070°58'0 0.1
2018-Jan-10 22:59N 42°20' W 070°58'1 1.8
2018-Jan-10 22:27N 42°20' W 070°59'3 7.1
2018-Jan-10 21:57N 42°22' W 071°03'1 0.9
2018-Jan-10 20:50N 42°23' W 071°02'0 1.3
2018-Jan-10 20:30N 42°23' W 071°03'0 0.0
2018-Jan-10 19:59N 42°23' W 071°03'0 0.0
2018-Jan-10 19:30N 42°23' W 071°03'0 0.0
2018-Jan-10 18:38N 42°23' W 071°03'0 0.0
2018-Jan-10 18:30N 42°23' W 071°03'0 0.0
2018-Jan-10 17:57N 42°23' W 071°03'0 0.0
2018-Jan-10 17:30N 42°23' W 071°03'0 0.0
2018-Jan-10 17:00N 42°23' W 071°03'0 0.0
2018-Jan-10 16:30N 42°23' W 071°03'0 0.0
2018-Jan-10 16:00N 42°23' W 071°03'0 0.2
2018-Jan-10 15:30N 42°23' W 071°03'0 0.3
2018-Jan-10 14:46N 42°23' W 071°03'0 0.4
2018-Jan-10 14:30N 42°23' W 071°03'1 2.4
2018-Jan-10 14:00N 42°23' W 071°01'0 0.7
2018-Jan-10 13:24N 42°24' W 071°01'1 3.5
2018-Jan-10 13:00N 42°23' W 071°03'0 0.5
2018-Jan-10 12:30N 42°23' W 071°03'1 1.5
2018-Jan-10 12:00N 42°23' W 071°04'0 0.0
2018-Jan-10 11:29N 42°23' W 071°04'0 0.2
2018-Jan-10 11:00N 42°23' W 071°04'1 1.4
2018-Jan-10 10:29N 42°23' W 071°03'2 3.8
2018-Jan-10 10:00N 42°21' W 071°02'3 6.1
2018-Jan-10 09:30N 42°20' W 070°58'1 0.3
2018-Jan-10 07:21N 42°21' W 070°58'3 9.1
2018-Jan-10 07:00N 42°23' W 070°54'4 8.1
2018-Jan-10 06:30N 42°24' W 070°49'510.2
2018-Jan-10 06:00N 42°22' W 070°55'5 9.0
2018-Jan-10 05:28N 42°21' W 071°02'2 4.5
2018-Jan-10 05:00N 42°23' W 071°03'0 0.0
2018-Jan-10 04:30N 42°23' W 071°03'0 0.0
2018-Jan-10 04:00N 42°23' W 071°03'0 0.7
2018-Jan-10 03:30N 42°23' W 071°03'0 0.1
2018-Jan-10 03:00N 42°23' W 071°03'0 0.0
2018-Jan-10 02:30N 42°23' W 071°03'0 0.0
2018-Jan-10 02:00N 42°23' W 071°03'0 0.0
2018-Jan-10 01:27N 42°23' W 071°03'0 0.0
2018-Jan-10 00:53N 42°23' W 071°03'0 0.7
2018-Jan-10 00:30N 42°23' W 071°03'1 1.2
2018-Jan-10 00:00N 42°23' W 071°03'1 0.8
2018-Jan-09 22:51N 42°23' W 071°02'0 0.1
2018-Jan-09 22:27N 42°23' W 071°02'1 1.9
2018-Jan-09 22:00N 42°22' W 071°03'2 3.9
2018-Jan-09 21:28N 42°21' W 071°01'0 0.4
2018-Jan-09 20:56N 42°21' W 071°01'2 4.4
2018-Jan-09 20:30N 42°20' W 070°59'2 3.4
2018-Jan-09 19:56N 42°21' W 071°01'2 3.7
2018-Jan-09 19:30N 42°22' W 071°03'2 3.0
2018-Jan-09 18:41N 42°24' W 071°01'0 0.1
2018-Jan-09 18:17N 42°24' W 071°01'0 0.0
2018-Jan-09 18:00N 42°24' W 071°01'2 3.1
2018-Jan-09 17:28N 42°23' W 071°03'0 0.0
2018-Jan-09 16:59N 42°23' W 071°03'0 0.0
2018-Jan-09 16:22N 42°23' W 071°03'0 0.1
2018-Jan-09 15:54N 42°23' W 071°03'1 2.6
2018-Jan-09 15:31N 42°23' W 071°04'1 2.5
2018-Jan-09 14:59N 42°22' W 071°03'1 1.1
2018-Jan-09 14:30N 42°23' W 071°03'0 0.3
2018-Jan-09 14:00N 42°23' W 071°03'0 0.0
2018-Jan-09 13:30N 42°23' W 071°03'0 0.0
2018-Jan-09 13:00N 42°23' W 071°03'0 0.0
2018-Jan-09 12:29N 42°23' W 071°03'0 0.4
2018-Jan-09 12:00N 42°23' W 071°03'1 2.9
2018-Jan-09 11:30N 42°24' W 071°01'0 0.1
2018-Jan-09 11:00N 42°24' W 071°01'2 1.7
2018-Jan-09 10:04N 42°23' W 071°03'0 0.6
2018-Jan-09 10:00N 42°23' W 071°03'3 5.1
2018-Jan-09 09:30N 42°21' W 071°01'0 0.6
2018-Jan-09 08:55N 42°21' W 071°01'2 5.4
2018-Jan-09 08:30N 42°23' W 071°03'1 1.1
2018-Jan-09 08:00N 42°23' W 071°03'0 0.1
2018-Jan-09 07:30N 42°23' W 071°03'1 2.5
2018-Jan-09 07:00N 42°22' W 071°03'1 1.8
2018-Jan-09 06:28N 42°23' W 071°03'0 0.0
2018-Jan-09 05:43N 42°23' W 071°03'0 0.0
2018-Jan-09 05:10N 42°23' W 071°03'0 0.0
2018-Jan-09 04:46N 42°23' W 071°03'0 0.0
2018-Jan-09 04:29N 42°23' W 071°03'0 0.0
2018-Jan-09 04:00N 42°23' W 071°03'0 0.0
2018-Jan-09 03:30N 42°23' W 071°03'0 0.0
2018-Jan-09 02:58N 42°23' W 071°03'0 0.0
2018-Jan-09 02:26N 42°23' W 071°03'0 0.2
2018-Jan-09 01:58N 42°23' W 071°03'0 0.1
2018-Jan-09 01:30N 42°23' W 071°03'0 0.2
2018-Jan-09 01:00N 42°23' W 071°03'0 0.1
2018-Jan-09 00:30N 42°23' W 071°03'0 0.0
2018-Jan-08 23:57N 42°23' W 071°03'0 0.0
2018-Jan-08 21:49N 42°23' W 071°03'1 2.6
2018-Jan-08 21:29N 42°23' W 071°01'1 0.5
2018-Jan-08 20:10N 42°23' W 071°02'0 2.8
2018-Jan-08 20:00N 42°23' W 071°03'1 1.4
2018-Jan-08 19:30N 42°23' W 071°04'0 0.7
2018-Jan-08 19:00N 42°23' W 071°03'1 0.7
2018-Jan-08 18:14N 42°23' W 071°03'0 0.9
2018-Jan-08 18:00N 42°23' W 071°03'0 0.5
2018-Jan-08 17:25N 42°23' W 071°02'0 0.8
2018-Jan-08 16:54N 42°23' W 071°03'0 0.0
2018-Jan-08 16:29N 42°23' W 071°03'0 0.0
2018-Jan-08 15:50N 42°23' W 071°03'1 2.2
2018-Jan-08 15:24N 42°23' W 071°01'1 2.0
2018-Jan-08 15:00N 42°24' W 071°01'0 0.1
2018-Jan-08 14:31N 42°24' W 071°01'0 0.5
2018-Jan-08 13:52N 42°24' W 071°01'1 3.7
2018-Jan-08 13:30N 42°23' W 071°03'  

Dump ship's entire track history